FW8782 Weather Reports


Display with metric or nautical units.
time (UTC)temp
F
wind
direction
speed
MPH
gust
MPH
rain 1hr
in
rain 24hr
in
rain mn
in
humidity
%
barometer
mb
20260505235015 64 5 0.0 3.0 0.00 0.00 0.00 69 1015.5
20260505234532 64 315 1.0 3.0 0.00 0.00 0.00 69 1015.6
20260505234015 64 215 0.0 2.0 0.00 0.00 0.00 70 1015.6
20260505233513 64 305 0.0 3.0 0.00 0.00 0.00 70 1015.7
20260505233036 64 0 0.0 3.0 0.00 0.00 0.00 71 1015.7
20260505232517 63 185 0.0 2.0 0.00 0.00 0.00 71 1015.8
20260505232015 63 0 0.0 5.0 0.00 0.00 0.00 72 1015.8
20260505231535 63 329 2.0 5.0 0.00 0.00 0.00 71 1015.9
20260505231017 63 352 1.0 2.0 0.00 0.00 0.00 72 1015.9
20260505230514 63 0 0.0 4.0 0.00 0.00 0.00 72 1016.0
20260505230036 63 215 0.0 4.0 0.00 0.00 0.00 72 1016.0
20260505225513 63 219 0.0 2.0 0.00 0.00 0.00 73 1016.1
20260505225015 62 234 1.0 2.0 0.00 0.00 0.00 72 1016.1
20260505224529 63 0 0.0 4.0 0.00 0.00 0.00 71 1016.1
20260505224012 63 136 1.0 4.0 0.00 0.00 0.00 72 1016.1
20260505223521 63 302 0.0 3.0 0.00 0.00 0.00 71 1016.1
20260505223036 63 0 0.0 3.0 0.00 0.00 0.00 72 1016.2
20260505222513 62 306 0.0 3.0 0.00 0.00 0.00 72 1016.2
20260505222013 62 293 1.0 3.0 0.00 0.00 0.00 73 1016.3
20260505221532 62 287 0.0 2.0 0.00 0.00 0.00 73 1016.3
20260505221015 62 0 0.0 3.0 0.00 0.00 0.00 74 1016.3
20260505220512 62 244 0.0 3.0 0.00 0.00 0.00 73 1016.3
20260505220037 62 238 1.0 3.0 0.00 0.00 0.00 74 1016.4
20260505215514 62 225 0.0 3.0 0.00 0.00 0.00 75 1016.4
20260505215014 61 0 0.0 2.0 0.00 0.00 0.00 75 1016.4
20260505214553 61 317 1.0 2.0 0.00 0.00 0.00 74 1016.5
20260505214015 61 0 0.0 4.0 0.00 0.00 0.00 74 1016.4
20260505213518 61 327 1.0 4.0 0.00 0.00 0.00 74 1016.5
20260505213029 61 0 0.0 6.0 0.00 0.00 0.00 75 1016.5
20260505212513 61 259 2.0 5.0 0.00 0.00 0.00 74 1016.5
20260505212014 61 204 1.0 4.0 0.00 0.00 0.00 74 1016.5
20260505211534 61 244 1.0 4.0 0.00 0.00 0.00 73 1016.5
20260505211016 61 0 0.0 2.0 0.00 0.00 0.00 74 1016.6
20260505210514 61 232 1.0 3.0 0.00 0.00 0.00 74 1016.6
20260505210033 61 352 1.0 3.0 0.00 0.00 0.00 74 1016.6
20260505205514 61 201 0.0 4.0 0.00 0.00 0.00 75 1016.5
20260505205017 61 0 0.0 4.0 0.00 0.00 0.00 74 1016.6
20260505204534 61 252 1.0 4.0 0.00 0.00 0.00 74 1016.6
20260505204014 61 227 0.0 3.0 0.00 0.00 0.00 74 1016.6
20260505203518 61 212 0.0 3.0 0.00 0.00 0.00 74 1016.7
20260505203034 61 0 0.0 3.0 0.00 0.00 0.00 74 1016.7
20260505202511 60 0 0.0 3.0 0.00 0.00 0.00 75 1016.6
20260505202015 60 224 1.0 3.0 0.00 0.00 0.00 75 1016.6
20260505201530 60 0 0.0 3.0 0.00 0.00 0.00 75 1016.6
20260505201014 60 240 0.0 3.0 0.00 0.00 0.00 75 1016.6
20260505200513 60 155 0.0 4.0 0.00 0.00 0.00 75 1016.5
20260505200041 60 235 0.0 4.0 0.00 0.00 0.00 75 1016.6
20260505195513 60 212 0.0 2.0 0.00 0.00 0.00 76 1016.7
20260505195012 60 0 0.0 4.0 0.00 0.00 0.00 75 1016.6
20260505194532 60 0 1.0 4.0 0.00 0.00 0.00 75 1016.7
20260505194014 59 233 0.0 3.0 0.00 0.00 0.00 75 1016.8
20260505193518 59 0 0.0 2.0 0.00 0.00 0.00 75 1016.7
20260505193036 59 0 0.0 3.0 0.00 0.00 0.00 75 1016.6
20260505192519 59 0 0.0 3.0 0.00 0.00 0.00 76 1016.7
20260505192019 59 240 1.0 3.0 0.00 0.00 0.00 75 1016.6
20260505191532 59 236 0.0 2.0 0.00 0.00 0.00 77 1016.6
20260505191016 59 0 0.0 2.0 0.00 0.00 0.00 76 1016.6
20260505190514 59 0 0.0 2.0 0.00 0.00 0.00 77 1016.4
20260505190032 58 0 0.0 4.0 0.00 0.00 0.00 77 1016.5
20260505185516 58 217 1.0 8.0 0.00 0.00 0.00 77 1016.6
20260505185022 58 223 2.0 8.0 0.00 0.00 0.00 76 1016.6
20260505184533 58 219 2.0 5.0 0.00 0.00 0.00 76 1016.6
20260505184014 58 203 1.0 5.0 0.00 0.00 0.00 76 1016.6
20260505183514 58 332 0.0 3.0 0.00 0.00 0.00 77 1016.6
20260505183046 58 0 0.0 3.0 0.00 0.00 0.00 76 1016.7
20260505182516 58 233 0.0 2.0 0.00 0.00 0.00 77 1016.7
20260505182015 58 230 0.0 4.0 0.00 0.00 0.00 78 1016.6
20260505181531 58 0 1.0 5.0 0.00 0.00 0.00 77 1016.6
20260505181014 58 285 0.0 5.0 0.00 0.00 0.00 77 1016.5
20260505180514 58 215 0.0 5.0 0.00 0.00 0.00 78 1016.5
20260505180038 58 246 0.0 5.0 0.00 0.00 0.00 78 1016.5
20260505175514 58 234 1.0 4.0 0.00 0.00 0.00 77 1016.5
20260505175014 58 286 0.0 4.0 0.00 0.00 0.00 78 1016.5
20260505174531 58 0 0.0 3.0 0.00 0.00 0.00 78 1016.6
20260505174013 58 0 0.0 3.0 0.00 0.00 0.00 77 1016.5
20260505173519 58 0 0.0 3.0 0.00 0.00 0.00 79 1016.5
20260505173032 57 0 0.0 3.0 0.00 0.00 0.00 79 1016.5
20260505172513 57 227 1.0 3.0 0.00 0.00 0.00 77 1016.4
20260505172013 57 0 0.0 3.0 0.00 0.00 0.00 79 1016.5
20260505171532 57 236 0.0 3.0 0.00 0.00 0.00 78 1016.4
20260505171014 57 0 0.0 2.0 0.00 0.00 0.00 79 1016.3
20260505170512 57 0 0.0 2.0 0.00 0.00 0.00 79 1016.3
20260505170032 57 248 0.0 3.0 0.00 0.00 0.00 79 1016.3
20260505165513 57 0 0.0 3.0 0.00 0.00 0.00 79 1016.3
20260505165014 57 232 0.0 4.0 0.00 0.00 0.00 79 1016.4
20260505164535 57 0 1.0 4.0 0.00 0.00 0.00 79 1016.2
20260505164014 56 223 0.0 2.0 0.00 0.00 0.00 79 1016.3
20260505163514 56 244 0.0 2.0 0.00 0.00 0.00 80 1016.1
20260505163032 56 0 0.0 2.0 0.00 0.00 0.00 79 1016.1
20260505162514 56 0 0.0 3.0 0.00 0.00 0.00 80 1015.9
20260505162016 56 0 0.0 3.0 0.00 0.00 0.00 80 1015.9
20260505161530 56 0 0.0 3.0 0.00 0.00 0.00 80 1015.9
20260505161015 56 237 0.0 2.0 0.00 0.00 0.00 80 1016.0
20260505160517 56 240 0.0 2.0 0.00 0.00 0.00 80 1015.9
20260505153035 55 238 0.0 2.0 0.00 0.00 0.00 80 1016.0
20260505152514 55 238 0.0 2.0 0.00 0.00 0.00 80 1015.9
20260505152016 55 0 0.0 0.0 0.00 0.00 0.00 80 1015.8
20260505151533 55 0 0.0 0.0 0.00 0.00 0.00 80 1015.8
20260505151014 55 0 0.0 3.0 0.00 0.00 0.00 81 1015.8
20260505150516 55 0 0.0 3.0 0.00 0.00 0.00 81 1015.7
20260505140512 54 0 0.0 4.0 0.00 0.00 0.00 82 1015.4
20260505125013 54 0 0.0 2.0 0.00 0.00 0.00 83 1014.5
20260505124536 54 0 0.0 2.0 0.00 0.00 0.00 83 1014.5
20260505124015 54 0 0.0 2.0 0.00 0.00 0.00 83 1014.6
20260505123519 54 0 0.0 1.0 0.00 0.00 0.00 83 1014.5
20260505123032 54 0 0.0 1.0 0.00 0.00 0.00 83 1014.5
20260505122514 54 0 0.0 0.0 0.00 0.00 0.00 83 1014.4
20260505122015 54 0 0.0 0.0 0.00 0.00 0.00 83 1014.3
20260505121538 54 0 0.0 0.0 0.00 0.00 0.00 84 1014.4
20260505121014 54 0 0.0 0.0 0.00 0.00 0.00 84 1014.3
20260505120513 54 0 0.0 0.0 0.00 0.00 0.00 84 1014.3
20260505120042 54 0 0.0 0.0 0.00 0.00 0.00 84 1014.3
20260505115516 54 0 0.0 0.0 0.00 0.00 0.00 84 1014.2
20260505115018 54 0 0.0 0.0 0.00 0.00 0.00 84 1014.1
20260505114539 54 0 0.0 0.0 0.00 0.00 0.00 84 1014.2
20260505114015 53 0 0.0 0.0 0.00 0.00 0.00 84 1014.1
20260505113515 53 0 0.0 0.0 0.00 0.00 0.00 85 1014.1
20260505113034 53 0 0.0 0.0 0.00 0.00 0.00 85 1014.1
20260505112514 53 0 0.0 0.0 0.00 0.00 0.00 85 1014.2
20260505112014 53 0 0.0 0.0 0.00 0.00 0.00 85 1014.1
20260505111534 53 0 0.0 0.0 0.00 0.00 0.00 85 1014.0
20260505111014 53 0 0.0 0.0 0.00 0.00 0.00 85 1014.0
20260505110514 53 0 0.0 0.0 0.00 0.00 0.00 86 1014.2
20260505102015 52 0 0.0 0.0 0.00 0.00 0.00 87 1013.9
20260505101542 52 0 0.0 0.0 0.00 0.00 0.00 87 1013.9
20260505101017 52 0 0.0 0.0 0.00 0.00 0.00 87 1013.8
20260505100515 52 0 0.0 0.0 0.00 0.00 0.00 87 1013.8
20260505100032 52 0 0.0 0.0 0.00 0.00 0.00 87 1013.8
20260505095514 52 0 0.0 0.0 0.00 0.00 0.00 87 1013.7
20260505095015 51 0 0.0 0.0 0.00 0.00 0.00 87 1013.7
20260505094539 51 0 0.0 0.0 0.00 0.00 0.00 87 1013.7
20260505094011 51 0 0.0 0.0 0.00 0.00 0.00 87 1013.7
20260505093515 51 0 0.0 0.0 0.00 0.00 0.00 87 1013.6
20260505093032 51 0 0.0 0.0 0.00 0.00 0.00 87 1013.6
20260505092515 51 0 0.0 0.0 0.00 0.00 0.00 87 1013.6
20260505092015 51 0 0.0 0.0 0.00 0.00 0.00 88 1013.5
20260505091534 51 0 0.0 0.0 0.00 0.00 0.00 88 1013.5
20260505091014 51 0 0.0 0.0 0.00 0.00 0.00 88 1013.5
20260505090514 51 0 0.0 0.0 0.00 0.00 0.00 88 1013.5
20260505090031 50 0 0.0 0.0 0.00 0.00 0.00 88 1013.5
20260505085512 50 0 0.0 0.0 0.00 0.00 0.00 87 1013.5
20260505085014 50 0 0.0 0.0 0.00 0.00 0.00 87 1013.4
20260505084530 50 0 0.0 0.0 0.00 0.00 0.00 87 1013.5
20260505084012 50 0 0.0 0.0 0.00 0.00 0.00 87 1013.4
20260505083513 50 0 0.0 0.0 0.00 0.00 0.00 87 1013.5
20260505083032 50 0 0.0 0.0 0.00 0.00 0.00 86 1013.4
20260505082516 50 0 0.0 0.0 0.00 0.00 0.00 86 1013.4
20260505082017 50 0 0.0 0.0 0.00 0.00 0.00 86 1013.3
20260505081530 50 0 0.0 0.0 0.00 0.00 0.00 86 1013.4
20260505081019 50 0 0.0 0.0 0.00 0.00 0.00 85 1013.3
20260505080514 50 0 0.0 0.0 0.00 0.00 0.00 85 1013.4
20260505080033 50 0 0.0 0.0 0.00 0.00 0.00 85 1013.4
20260505075514 50 0 0.0 0.0 0.00 0.00 0.00 85 1013.5
20260505075019 50 0 0.0 0.0 0.00 0.00 0.00 85 1013.3
20260505074532 50 0 0.0 0.0 0.00 0.00 0.00 85 1013.3
20260505074014 50 0 0.0 0.0 0.00 0.00 0.00 85 1013.3
20260505073518 51 0 0.0 0.0 0.00 0.00 0.00 85 1013.2
20260505073030 51 0 0.0 0.0 0.00 0.00 0.00 84 1013.2
20260505072514 51 0 0.0 0.0 0.00 0.00 0.00 84 1013.1
20260505072013 51 0 0.0 0.0 0.00 0.00 0.00 84 1013.0
20260505071533 51 0 0.0 0.0 0.00 0.00 0.00 84 1012.9
20260505071014 51 0 0.0 0.0 0.00 0.00 0.00 84 1012.9
20260505070519 51 0 0.0 0.0 0.00 0.00 0.00 84 1012.9
20260505070031 51 0 0.0 0.0 0.00 0.00 0.00 84 1012.8
20260505065515 52 0 0.0 0.0 0.00 0.00 0.00 83 1012.7
20260505065015 52 0 0.0 0.0 0.00 0.00 0.00 83 1012.6
20260505064531 52 0 0.0 0.0 0.00 0.00 0.00 83 1012.6
20260505064011 52 0 0.0 0.0 0.00 0.00 0.00 83 1012.6
20260505063514 52 0 0.0 0.0 0.00 0.00 0.00 83 1012.7
20260505063031 52 0 0.0 0.0 0.00 0.00 0.00 82 1012.3
20260505062511 53 0 0.0 0.0 0.00 0.00 0.00 82 1012.3
20260505062011 53 0 0.0 0.0 0.00 0.00 0.00 82 1012.3
20260505061534 53 0 0.0 0.0 0.00 0.00 0.00 82 1012.2
20260505061018 53 0 0.0 0.0 0.00 0.00 0.00 81 1012.1
20260505060514 53 0 0.0 0.0 0.00 0.00 0.00 81 1012.1
20260505060044 53 0 0.0 0.0 0.00 0.00 0.00 81 1012.2
20260505055518 54 0 0.0 0.0 0.00 0.00 0.00 81 1012.1
20260505055018 54 0 0.0 0.0 0.00 0.00 0.00 80 1012.1
20260505054533 54 0 0.0 0.0 0.00 0.00 0.00 80 1012.1
20260505054013 54 0 0.0 0.0 0.00 0.00 0.00 79 1012.1
20260505053515 55 0 0.0 0.0 0.00 0.00 0.00 79 1012.1
20260505053032 55 0 0.0 0.0 0.00 0.00 0.00 79 1012.1
20260505052514 55 0 0.0 0.0 0.00 0.00 0.00 78 1012.1
20260505052015 55 0 0.0 0.0 0.00 0.00 0.00 78 1012.1
20260505051535 55 0 0.0 0.0 0.00 0.00 0.00 78 1012.1
20260505051015 56 0 0.0 0.0 0.00 0.00 0.00 77 1012.1
20260505050512 56 0 0.0 0.0 0.00 0.00 0.00 77 1012.0
20260505041530 59 0 0.0 0.0 0.00 0.00 0.00 73 1011.5
20260505041015 59 0 0.0 0.0 0.00 0.00 0.00 72 1011.5
20260505040514 60 0 0.0 0.0 0.00 0.00 0.00 72 1011.5
20260505040036 60 0 0.0 0.0 0.00 0.00 0.00 70 1011.2
20260505035514 60 0 0.0 0.0 0.00 0.00 0.00 70 1011.1
20260505035014 61 0 0.0 0.0 0.00 0.00 0.00 70 1011.1
20260505034532 62 0 0.0 0.0 0.00 0.00 0.00 70 1011.0
20260505034014 62 0 0.0 2.0 0.00 0.00 0.00 69 1011.0
20260505033512 62 0 0.0 1.0 0.00 0.00 0.00 68 1010.9
20260505033032 63 0 0.0 0.0 0.00 0.00 0.00 68 1010.9
20260505032515 63 0 0.0 2.0 0.00 0.00 0.00 68 1010.7
20260505032011 64 0 0.0 2.0 0.00 0.00 0.00 67 1010.7
20260505031532 64 0 0.0 1.0 0.00 0.00 0.00 67 1010.7
20260505031011 65 222 0.0 1.0 0.00 0.00 0.00 66 1010.7
20260505030515 65 0 0.0 2.0 0.00 0.00 0.00 65 1010.6
20260505030035 66 0 0.0 2.0 0.00 0.00 0.00 65 1010.6
20260505025518 66 0 0.0 2.0 0.00 0.00 0.00 65 1010.6
20260505025015 67 0 0.0 2.0 0.00 0.00 0.00 64 1010.4
20260505024533 67 0 0.0 2.0 0.00 0.00 0.00 63 1010.4
20260505024014 68 222 0.0 2.0 0.00 0.00 0.00 63 1010.3
20260505023515 68 222 0.0 2.0 0.00 0.00 0.00 62 1010.3
20260505023034 69 0 0.0 3.0 0.00 0.00 0.00 61 1010.2
20260505022515 69 0 0.0 3.0 0.00 0.00 0.00 60 1010.2
20260505022013 70 0 0.0 2.0 0.00 0.00 0.00 59 1010.2
20260505021533 70 0 0.0 4.0 0.00 0.00 0.00 59 1010.1
20260505021011 70 0 0.0 4.0 0.00 0.00 0.00 57 1010.1
20260505020515 71 271 0.0 2.0 0.00 0.00 0.00 56 1010.1
20260505020032 71 309 0.0 2.0 0.00 0.00 0.00 56 1010.1
20260505015515 72 213 0.0 2.0 0.00 0.00 0.00 55 1010.0
20260505015014 72 0 0.0 4.0 0.00 0.00 0.00 54 1010.0
20260505014532 73 229 1.0 4.0 0.00 0.00 0.00 53 1010.0
20260505014019 74 207 1.0 4.0 0.00 0.00 0.00 51 1010.0
20260505013514 75 0 0.0 3.0 0.00 0.00 0.00 51 1010.2
20260505013050 75 0 0.0 3.0 0.00 0.00 0.00 52 1010.0
20260505012514 75 294 0.0 3.0 0.00 0.00 0.00 50 1010.0
20260505012014 76 32 0.0 4.0 0.00 0.00 0.00 49 1010.0
20260505011532 76 335 1.0 4.0 0.00 0.00 0.00 48 1010.0
20260505011011 77 235 1.0 5.0 0.00 0.00 0.00 48 1010.0
20260505010519 77 22 1.0 5.0 0.00 0.00 0.00 47 1010.0
20260505010035 77 259 1.0 3.0 0.00 0.00 0.00 47 1009.9
20260505005514 77 186 1.0 3.0 0.00 0.00 0.00 47 1010.0
20260505005014 78 205 0.0 3.0 0.00 0.00 0.00 47 1010.0
20260505004531 78 220 1.0 3.0 0.00 0.00 0.00 47 1010.0
20260505004011 78 192 1.0 5.0 0.00 0.00 0.00 47 1009.9
20260505003516 78 229 1.0 5.0 0.00 0.00 0.00 46 1009.9
20260505003034 78 229 1.0 4.0 0.00 0.00 0.00 47 1009.9
20260505002515 78 24 1.0 4.0 0.00 0.00 0.00 48 1009.9
20260505002012 78 14 1.0 4.0 0.00 0.00 0.00 48 1009.8
20260505001532 78 223 2.0 4.0 0.00 0.00 0.00 46 1009.7
20260505001014 79 272 1.0 4.0 0.00 0.00 0.00 46 1009.7
20260505000514 79 144 1.0 7.0 0.00 0.00 0.00 46 1009.7
20260505000040 79 185 1.0 7.0 0.00 0.00 0.00 46 1009.7
20260504235514 79 194 2.0 7.0 0.00 0.00 0.00 46 1009.8